This is the latest recevied weather packets stored in our database for station/object N5PRN. If no packets are shown the sender has not sent any weather packets the latest 10 day(s).
| Time | Temp. | Humidity | Pressure | Rain* | Wind** | Luminosity | Snow |
|---|---|---|---|---|---|---|---|
| 1777727516 | 11.67° C | 97% | 1018.2 hPa | 0 mm | - | 48 W/m² | - |
| 1777727213 | 11.67° C | 97% | 1018.1 hPa | 0 mm | - | 47 W/m² | - |
| 1777726911 | 11.67° C | 97% | 1018 hPa | 0 mm | - | 44 W/m² | - |
| 1777726606 | 11.67° C | 97% | 1018 hPa | 0 mm | - | 43 W/m² | - |
| 1777725390 | 11.11° C | 97% | 1017.8 hPa | 0 mm | - | 36 W/m² | - |
| 1777725087 | 11.11° C | 97% | 1017.7 hPa | 0 mm | - | 35 W/m² | - |
| 1777724784 | 11.11° C | 96% | 1017.9 hPa | 0 mm | - | 33 W/m² | - |
| 1777724481 | 11.11° C | 96% | 1017.6 hPa | 0 mm | - | 32 W/m² | - |
| 1777724179 | 11.11° C | 96% | 1017.6 hPa | 0 mm | - | 29 W/m² | - |
| 1777723876 | 11.11° C | 96% | 1017.3 hPa | 0 mm | - | 27 W/m² | - |
| 1777722056 | 10.56° C | 96% | 1016.9 hPa | 0 mm | - | 11 W/m² | - |
| 1777721754 | 10.56° C | 96% | 1016.7 hPa | 0 mm | - | 8 W/m² | - |
| 1777721452 | 10.56° C | 96% | 1016.9 hPa | 0 mm | - | 5 W/m² | - |
| 1777721149 | 10.56° C | 96% | 1016.9 hPa | 0 mm | - | 2 W/m² | - |
| 1777720847 | 10.56° C | 96% | 1016.4 hPa | 0 mm | - | 0 W/m² | - |
| 1777720544 | 10.56° C | 96% | 1016.2 hPa | 0 mm | - | 0 W/m² | - |
| 1777720242 | 10.56° C | 96% | 1016.1 hPa | 0 mm | - | 0 W/m² | - |
| 1777719939 | 10.56° C | 96% | 1016.3 hPa | 0 mm | - | 0 W/m² | - |
| 1777719636 | 10.56° C | 96% | 1016.1 hPa | 0 mm | - | 0 W/m² | - |
| 1777719333 | 10.56° C | 96% | 1016 hPa | 0 mm | - | 0 W/m² | - |
| 1777719031 | 10.56° C | 96% | 1016.1 hPa | 0 mm | - | 0 W/m² | - |
| 1777718728 | 10.56° C | 96% | 1016.1 hPa | 0 mm | - | 0 W/m² | - |
| 1777718425 | 11.11° C | 96% | 1016.1 hPa | 0 mm | - | 0 W/m² | - |
| 1777718123 | 10.56° C | 96% | 1016 hPa | 0 mm | - | 0 W/m² | - |
| 1777717821 | 11.11° C | 96% | 1015.9 hPa | 0 mm | - | 0 W/m² | - |
* Rain latest hour (hover to see other rain measurements)
** Current wind speed in m/s (hover to see current wind gust speed)